Regional Weather Roundup
Issued by NWS

Home | Current Version | Previous Version | Graphics & Text | Print | Product List | Glossary On
Versions: 1 2 3 4 5 6 7 8 9 10 11 12 13 14 15 16 17 18 19 20 21 22 23 24 25 26 27 28 29 30 31 32 33 34 35 36 37 38 39 40 41 42 43 44 45 46 47 48 49 50
000
ASUS45 KTFX 202304
RWRMT
MONTANA HOURLY WEATHER ROUNDUP
NATIONAL WEATHER SERVICE GREAT FALLS MT
504 PM MDT MON OCT 20 2014

NOTE: "FAIR" INDICATES FEW OR NO CLOUDS BELOW 12000 FEET WITH NO
SIGNIFICANT WEATHER AND/OR OBSTRUCTIONS TO VISIBILITY.

* THESE STATIONS ARE NOT UNDER NWS QUALITY CONTROL. THEY DO NOT
   REPORT WEATHER SUCH AS PRECIPITATION OR FOG.

MTZ001>007-043-210000-
WEST OF THE DIVIDE
CITY           SKY/WX    TMP DP  RH WIND       PRES   REMARKS
KALISPELL      CLEAR     72  39  30 CALM      29.73F
MISSOULA       CLEAR     70  37  30 W3        29.74F
BUTTE          MOCLDY    72  30  21 S13G23    29.89F
MULLAN PASS    PTCLDY    54  32  43 VRB3      29.87S
* ESSEX        N/A       65  38  37 SE4        N/A
* LINCOLN      N/A       77  30  18 W6G13      N/A
* POLSON       N/A       68  43  40 N2         N/A
* RONAN APT    CLEAR     70  43  38 NW5        N/A
* SEELEY LAKE  N/A       76  32  20 S4G9       N/A
* THOMP F APT  PTCLDY    64  29  27 S10G18     N/A
$$

MTZ008-052>055-210000-
SOUTHWEST MONTANA
CITY           SKY/WX    TMP DP  RH WIND       PRES   REMARKS
BOZEMAN        CLEAR     72  34  25 S9        29.85F
DILLON         PTCLDY    73  30  20 S23G30    29.86F
W YELLOWSTONE  PTCLDY    64  32  30 SW9       30.04F
* THREE FORKS  PTCLDY    75  45  34 N/A        N/A
* BOULDER HILL N/A       69  31  24 SW17G22    N/A
* MONIDA PASS  N/A       60  30  32 S15G20     N/A
* RAYNOLDS PAS N/A       64  45  50 SE17G22    N/A
* WHITEHALL    N/A       77  32  19 S3         N/A
* WISE RIVER   N/A       71  30  22 E5G14      N/A
$$

MTZ009>010-012-014-046-048-049-054-210000-
EAST SLOPES AND CENTRAL MONTANA
CITY           SKY/WX    TMP DP  RH WIND       PRES   REMARKS
CUT BANK       CLEAR     75  27  17 W15       29.74S
GREAT FALLS    CLEAR     77  30  18 SW14      29.76F
HELENA         CLEAR     73  37  27 VRB3      29.78F
MALMSTROM AFB  CLEAR     77  32  19 SW10      29.77F
* CONRAD       CLEAR     79  23  12 S8         N/A
* DEARBORN     N/A       78  31  18 S6G11      N/A
* EAST GLACIER N/A       68  27  21 W25G35     N/A
* MONARCH      N/A       69  26  20 SW13G18    N/A
* PENDROY      N/A       74  29  19 W12        N/A
* ROGERS PASS  N/A       69  28  22 SE10G15    N/A
* SAINT MARY   N/A       70  28  21 SW7G17     N/A
* SWEET GRASS  N/A       75  22  14 SW23       N/A
$$

MTZ011-013-016-021-035-040-045-047-050-051-210000-
NORTH CENTRAL MONTANA
CITY           SKY/WX    TMP DP  RH WIND       PRES   REMARKS
HAVRE          CLEAR     75  43  32 E8        29.71F
LEWISTOWN      CLEAR     73  36  26 SW9       29.84S
* CHINOOK      CLEAR     73  48  41 E9        29.72S
* FORT BENTON  CLEAR     81  30  16 SW10      29.73S
* CHESTER      N/A       78  25  14 SW9G18     N/A
* DENTON       N/A       79  34  20 SW7        N/A
* GEYSER       N/A       74  33  22 SW10G16    N/A
* JUDITH GAP   N/A       73  32  22 S9G15      N/A
* LOMA         N/A       81  30  16 SW12G20    N/A
$$

MTZ017>020-022>027-061-062-210000-
NORTHEAST MONTANA
CITY           SKY/WX    TMP DP  RH WIND       PRES   REMARKS
GLASGOW        CLEAR     73  43  34 SE7       29.77S
GLENDIVE       CLEAR     73  43  34 S7        29.85F
JORDAN         CLEAR     79  34  20 S7        29.79F
SIDNEY         CLEAR     73  46  38 S5        29.83F
WOLF POINT     CLEAR     79  43  28 S5        29.78S
* BEAVER HILL  N/A       75  41  30 SE12       N/A
* CIRCLE       N/A       77  39  26 S7         N/A
* LINDSAY DVD  N/A       72  38  29 SE9        N/A
* NAVAJO       N/A       72  42  34 S9         N/A
$$

MTZ028>042-056>058-210000-
SOUTHCENTRAL AND SOUTHEAST MONTANA
CITY           SKY/WX    TMP DP  RH WIND       PRES   REMARKS
BAKER          CLEAR     73  43  34 SE13      29.88F
BILLINGS       CLEAR     79  28  15 SW6       29.85F
LIVINGSTON     CLEAR     77  28  16 SW12      29.86F
MILES CITY     CLEAR     77  37  24 S5        29.83F
* LAUREL APT   CLEAR     79  32  18 N/A        N/A
* ROUNDUP APT  CLEAR     79  32  18 S5         N/A
* ALZADA       N/A       72  45  38 E9         N/A
* HYSHAM       N/A       74  29  19 W1         N/A
* LAME DEER    N/A       72  30  21 E4         N/A
* REED POINT   N/A       71  32  24 E3         N/A
* ROSCOE HILL  N/A       70  23  17 E11        N/A
$$

REGIONAL REPORTS...DAKOTAS
CITY           SKY/WX    TMP DP  RH WIND       PRES   REMARKS
WILLISTON      CLEAR     75  39  27 S12       29.82F
DICKINSON      CLEAR     70  43  38 S12       29.88F
BEACH          N/A       72  41  33 S12       29.87F
CROSBY         CLEAR     70  41  35 S13G18    29.83F
TIOGA          CLEAR     68  39  35 SE14G21   29.89S
BISMARCK       CLEAR     70  36  29 SE12      29.95F
GRAND FORKS    CLEAR     57  43  60 E5        30.03R
FARGO          CLEAR     61  43  52 E5        30.02S
RAPID CITY     CLEAR     75  46  36 S12       29.91F
$$

REGIONAL REPORTS...WYOMING/IDAHO/WASHINGTON
CITY           SKY/WX    TMP DP  RH WIND       PRES   REMARKS
GILLETTE       CLEAR     77  28  16 S6        29.91F
SHERIDAN       CLEAR     75  34  22 N6        29.89S
CODY           CLEAR    N/A N/A N/A SE14      29.93S
YELLOWSTONE LA PTCLDY    59  30  33 VRB7      30.14S
SALMON         CLEAR     72  36  27 CALM      29.76F
MULLAN PASS    PTCLDY    54  32  43 VRB3      29.87S
SAND POINT     PTCLDY    63  46  54 CALM      29.74F
SPOKANE        MOCLDY    66  45  47 W10       29.75S

$$




USA.gov is the U.S. government's official web portal to all federal, state and local government web resources and services.